Location: Riverside Cemetery
(38.3047°N, 99.7773°W)
Time: 00:32:07
(UTC+00:00)

Ariane Rocket - Pass Details

Date: 19 September 2020
Orbit: 761 x 769 km, 98.7° (Epoch: 23 October)

Event Time Altitude Azimuth Distance (km) Brightness Sun altitude
Exits shadow 02:30:49 31° 167° (SSE) 1,319 3.9 -21.8°
Maximum altitude 02:33:19 88° 255° (WSW) 769 2.9 -22.3°
Drops below altitude 10° 02:38:25 10° 346° (NNW) 2,309 5.9 -23.2°
Sets 02:40:44 0° 347° (NNW) 3,240 6.7 -23.6°
